Location: Observatoire
(46.1952°N, 5.3391°E)
Time: 09:16:14
(UTC+01:00)

A-11 Canister half - Pass Details

Date: 23 February 2026
Orbit: 1524 x 1683 km, 47.3° (Epoch: 12 March)

Event Time Altitude Azimuth Distance (km) Brightness Sun altitude
Rises 20:23:28 0° 287° (WNW) 4,690 13.0 -22.7°
Reaches altitude 10° 20:26:31 10° 286° (WNW) 3,699 12.1 -23.2°
Maximum altitude 20:35:46 75° 204° (SSW) 1,572 9.0 -24.8°
Enters shadow 20:39:43 40° 128° (SE) 2,130 9.3 -25.4°
Drops below altitude 10° 20:45:05 10° 121° (ESE) 3,714 - -26.3°
Sets 20:48:09 0° 119° (ESE) 4,710 - -26.9°
